This is the latest recevied weather packets stored in our database for station/object EA1HTW-13. If no packets are shown the sender has not sent any weather packets the latest 10 day(s).
| Time | Temp. | Humidity | Pressure | Rain* | Wind** | Luminosity | Snow |
|---|---|---|---|---|---|---|---|
| 1777661234 | 17.78° C | 58% | 1011.9 hPa | 0 mm | - | - | - |
| 1777660694 | 18.33° C | 55% | 1011.8 hPa | 0 mm | - | - | - |
| 1777660154 | 18.33° C | 53% | 1011.8 hPa | 0 mm | - | - | - |
| 1777659614 | 18.33° C | 52% | 1011.8 hPa | 0 mm | - | - | - |
| 1777659074 | 18.89° C | 51% | 1011.6 hPa | 0 mm | - | - | - |
| 1777658534 | 18.89° C | 51% | 1011.6 hPa | 0 mm | - | - | - |
| 1777657994 | 18.89° C | 51% | 1011.7 hPa | 0 mm | - | - | - |
| 1777657456 | 18.89° C | 51% | 1011.7 hPa | 0 mm | - | - | - |
| 1777656914 | 19.44° C | 53% | 1011.7 hPa | 0 mm | - | - | - |
| 1777656374 | 19.44° C | 54% | 1011.7 hPa | 0 mm | - | - | - |
| 1777655834 | 19.44° C | 53% | 1011.8 hPa | 0 mm | - | - | - |
| 1777655295 | 19.44° C | 51% | 1011.7 hPa | 0 mm | - | - | - |
| 1777654754 | 20° C | 51% | 1011.8 hPa | 0 mm | - | - | - |
| 1777654214 | 21.11° C | 49% | 1011.7 hPa | 0 mm | - | - | - |
| 1777653674 | 22.78° C | 41% | 1011.7 hPa | 0 mm | - | - | - |
| 1777653135 | 22.78° C | 46% | 1011.5 hPa | 0 mm | - | - | - |
| 1777652595 | 22.22° C | 50% | 1011.6 hPa | 0 mm | - | - | - |
| 1777652055 | 21.67° C | 50% | 1011.6 hPa | 0 mm | - | - | - |
| 1777651516 | 22.22° C | 52% | 1011.7 hPa | 0 mm | - | - | - |
| 1777650975 | 22.22° C | 50% | 1011.5 hPa | 0 mm | - | - | - |
| 1777650434 | 22.78° C | 44% | 1011.4 hPa | 0 mm | - | - | - |
| 1777649895 | 22.78° C | 47% | 1011.5 hPa | 0 mm | - | - | - |
| 1777649354 | 22.78° C | 48% | 1011.6 hPa | 0 mm | - | - | - |
| 1777648815 | 22.78° C | 46% | 1011.4 hPa | 0 mm | - | - | - |
| 1777648275 | 22.78° C | 47% | 1011.6 hPa | 0 mm | - | - | - |
* Rain latest hour (hover to see other rain measurements)
** Current wind speed in m/s (hover to see current wind gust speed)